Time,TemperatureF,DewpointF,PressureIn,WindDirection,WindDirectionDegrees,WindSpeedMPH,WindSpeedGustMPH,Humidity,HourlyPrecipIn,Conditions,Clouds,dailyrainin,SoftwareType,DateUTC
2013-05-17 00:03:00,67.0,61.0,29.82,SSE,165,0.0,-999.0,80,-99.99,,,-99.99,,2013-05-17 05:03:00,
2013-05-17 00:14:00,67.0,61.0,29.82,SSE,165,0.0,-999.0,80,-99.99,,,-99.99,,2013-05-17 05:14:00,
2013-05-17 00:22:00,67.0,61.0,29.82,SSE,165,0.0,-999.0,80,-99.99,,,-99.99,,2013-05-17 05:22:00,
2013-05-17 00:32:00,67.0,61.0,29.82,SSE,165,0.0,-999.0,81,-99.99,,,-99.99,,2013-05-17 05:32:00,
2013-05-17 00:42:00,67.0,61.0,29.82,SSE,165,0.0,-999.0,81,-99.99,,,-99.99,,2013-05-17 05:42:00,
2013-05-17 00:52:00,67.0,61.0,29.81,SSE,165,0.0,-999.0,81,-99.99,,,-99.99,,2013-05-17 05:52:00,
2013-05-17 01:02:00,66.0,60.0,29.81,SSE,165,4.0,-999.0,82,-99.99,,,-99.99,,2013-05-17 06:02:00,
2013-05-17 01:11:00,66.0,60.0,29.81,SSE,165,4.0,-999.0,82,-99.99,,,-99.99,,2013-05-17 06:11:00,
2013-05-17 01:21:00,66.0,60.0,29.82,SSE,165,0.0,-999.0,82,-99.99,,,-99.99,,2013-05-17 06:21:00,
2013-05-17 01:32:00,66.0,61.0,29.82,SSE,165,0.0,-999.0,83,-99.99,,,-99.99,,2013-05-17 06:32:00,
2013-05-17 01:42:00,66.0,61.0,29.82,SSE,165,0.0,-999.0,83,-99.99,,,-99.99,,2013-05-17 06:42:00,
2013-05-17 01:51:00,66.0,61.0,29.83,SSE,165,0.0,-999.0,83,-99.99,,,-99.99,,2013-05-17 06:51:00,
2013-05-17 02:02:00,65.0,60.0,29.82,SSE,165,0.0,-999.0,84,-99.99,,,-99.99,,2013-05-17 07:02:00,
2013-05-17 02:11:00,65.0,60.0,29.82,SSE,165,0.0,-999.0,84,-99.99,,,-99.99,,2013-05-17 07:11:00,
2013-05-17 02:21:00,64.0,59.0,29.82,SSE,165,0.0,-999.0,85,-99.99,,,-99.99,,2013-05-17 07:21:00,
2013-05-17 02:32:00,64.0,60.0,29.82,SSE,165,0.0,-999.0,86,-99.99,,,-99.99,,2013-05-17 07:32:00,
2013-05-17 02:43:00,64.0,60.0,29.82,SSE,165,0.0,-999.0,86,-99.99,,,-99.99,,2013-05-17 07:43:00,
2013-05-17 02:53:00,64.0,60.0,29.81,SSE,165,0.0,-999.0,87,-99.99,,,-99.99,,2013-05-17 07:53:00,
2013-05-17 03:02:00,63.0,59.0,29.82,SSE,165,0.0,-999.0,88,-99.99,,,-99.99,,2013-05-17 08:02:00,
2013-05-17 03:12:00,63.0,59.0,29.82,SSE,165,0.0,-999.0,88,-99.99,,,-99.99,,2013-05-17 08:12:00,
2013-05-17 03:22:00,63.0,59.0,29.81,SSE,165,0.0,-999.0,88,-99.99,,,-99.99,,2013-05-17 08:22:00,
2013-05-17 03:33:00,62.0,59.0,29.81,SSE,165,0.0,-999.0,89,-99.99,,,-99.99,,2013-05-17 08:33:00,
2013-05-17 03:42:00,62.0,59.0,29.81,SSE,165,0.0,-999.0,89,-99.99,,,-99.99,,2013-05-17 08:42:00,
2013-05-17 03:51:00,62.0,59.0,29.82,SSE,165,0.0,-999.0,89,-99.99,,,-99.99,,2013-05-17 08:51:00,
2013-05-17 04:02:00,61.0,58.0,29.82,SSE,165,0.0,-999.0,90,-99.99,,,-99.99,,2013-05-17 09:02:00,
2013-05-17 04:12:00,61.0,58.0,29.82,SSE,165,0.0,-999.0,90,-99.99,,,-99.99,,2013-05-17 09:12:00,
2013-05-17 04:22:00,61.0,58.0,29.82,SSE,165,0.0,-999.0,91,-99.99,,,-99.99,,2013-05-17 09:22:00,
2013-05-17 04:33:00,61.0,58.0,29.83,SSE,165,0.0,-999.0,91,-99.99,,,-99.99,,2013-05-17 09:33:00,
2013-05-17 04:42:00,61.0,58.0,29.83,SSE,165,0.0,-999.0,91,-99.99,,,-99.99,,2013-05-17 09:42:00,
2013-05-17 04:53:00,61.0,58.0,29.83,SSE,165,0.0,-999.0,91,-99.99,,,-99.99,,2013-05-17 09:53:00,
2013-05-17 05:03:00,61.0,59.0,29.83,SSE,165,0.0,-999.0,92,-99.99,,,-99.99,,2013-05-17 10:03:00,
2013-05-17 05:12:00,61.0,59.0,29.83,SSE,165,0.0,-999.0,92,-99.99,,,-99.99,,2013-05-17 10:12:00,
2013-05-17 05:23:00,61.0,59.0,29.83,SSE,165,0.0,-999.0,92,-99.99,,,-99.99,,2013-05-17 10:23:00,
2013-05-17 05:33:00,60.0,58.0,29.82,SSE,165,0.0,-999.0,92,-99.99,,,-99.99,,2013-05-17 10:33:00,
2013-05-17 05:42:00,60.0,58.0,29.82,SSE,165,0.0,-999.0,92,-99.99,,,-99.99,,2013-05-17 10:42:00,
2013-05-17 05:53:00,59.0,57.0,29.83,SSE,165,0.0,-999.0,92,-99.99,,,-99.99,,2013-05-17 10:53:00,
2013-05-17 06:02:00,59.0,57.0,29.82,SSE,165,0.0,-999.0,92,-99.99,,,-99.99,,2013-05-17 11:02:00,
2013-05-17 06:12:00,59.0,57.0,29.82,SSE,165,0.0,-999.0,92,-99.99,,,-99.99,,2013-05-17 11:12:00,
2013-05-17 06:22:00,59.0,57.0,29.83,SSE,165,0.0,-999.0,93,-99.99,,,-99.99,,2013-05-17 11:22:00,
2013-05-17 06:34:00,59.0,57.0,29.84,SSE,165,0.0,-999.0,93,-99.99,,,-99.99,,2013-05-17 11:34:00,
2013-05-17 06:42:00,59.0,57.0,29.84,SSE,165,0.0,-999.0,93,-99.99,,,-99.99,,2013-05-17 11:42:00,
2013-05-17 06:53:00,57.0,55.0,29.84,West,276,0.0,-999.0,93,-99.99,,,-99.99,,2013-05-17 11:53:00,
2013-05-17 07:03:00,59.0,57.0,29.85,West,276,0.0,-999.0,94,-99.99,,,-99.99,,2013-05-17 12:03:00,
2013-05-17 07:12:00,59.0,57.0,29.85,West,276,0.0,-999.0,94,-99.99,,,-99.99,,2013-05-17 12:12:00,
2013-05-17 07:23:00,59.0,57.0,29.86,West,276,0.0,-999.0,94,-99.99,,,-99.99,,2013-05-17 12:23:00,
2013-05-17 07:32:00,60.0,58.0,29.86,West,276,0.0,-999.0,94,-99.99,,,-99.99,,2013-05-17 12:32:00,
2013-05-17 07:43:00,60.0,58.0,29.86,West,276,0.0,-999.0,94,-99.99,,,-99.99,,2013-05-17 12:43:00,
2013-05-17 07:53:00,60.0,58.0,29.87,West,276,0.0,-999.0,94,-99.99,,,-99.99,,2013-05-17 12:53:00,
2013-05-17 08:03:00,62.0,60.0,29.88,West,276,0.0,-999.0,94,-99.99,,,-99.99,,2013-05-17 13:03:00,
2013-05-17 08:12:00,62.0,60.0,29.88,West,276,0.0,-999.0,94,-99.99,,,-99.99,,2013-05-17 13:12:00,
2013-05-17 08:23:00,62.0,60.0,29.89,SW,234,1.0,-999.0,94,-99.99,,,-99.99,,2013-05-17 13:23:00,
2013-05-17 08:33:00,63.0,61.0,29.89,SW,234,0.0,-999.0,94,-99.99,,,-99.99,,2013-05-17 13:33:00,
2013-05-17 08:42:00,63.0,61.0,29.89,SW,234,0.0,-999.0,94,-99.99,,,-99.99,,2013-05-17 13:42:00,
2013-05-17 08:52:00,64.0,62.0,29.90,SW,216,0.0,-999.0,93,-99.99,,,-99.99,,2013-05-17 13:52:00,
2013-05-17 09:02:00,64.0,62.0,29.90,SW,216,0.0,-999.0,92,-99.99,,,-99.99,,2013-05-17 14:02:00,
2013-05-17 09:13:00,64.0,62.0,29.90,SW,216,0.0,-999.0,92,-99.99,,,-99.99,,2013-05-17 14:13:00,
2013-05-17 09:22:00,65.0,62.0,29.90,SW,216,0.0,-999.0,91,-99.99,,,-99.99,,2013-05-17 14:22:00,
2013-05-17 09:34:00,66.0,63.0,29.90,SW,216,0.0,-999.0,90,-99.99,,,-99.99,,2013-05-17 14:34:00,
2013-05-17 09:43:00,66.0,63.0,29.90,SW,216,0.0,-999.0,90,-99.99,,,-99.99,,2013-05-17 14:43:00,
2013-05-17 09:53:00,66.0,63.0,29.90,SW,216,0.0,-999.0,89,-99.99,,,-99.99,,2013-05-17 14:53:00,
2013-05-17 10:03:00,66.0,63.0,29.90,SSW,202,0.0,-999.0,89,-99.99,,,-99.99,,2013-05-17 15:03:00,
2013-05-17 10:14:00,66.0,63.0,29.90,SSW,202,0.0,-999.0,89,-99.99,,,-99.99,,2013-05-17 15:14:00,
2013-05-17 10:25:00,66.0,63.0,29.90,SSW,200,0.0,-999.0,89,-99.99,,,-99.99,,2013-05-17 15:25:00,
2013-05-17 10:37:00,66.0,63.0,29.90,SSW,200,0.0,-999.0,89,-99.99,,,-99.99,,2013-05-17 15:37:00,
2013-05-17 10:47:00,66.0,63.0,29.90,SSW,200,0.0,-999.0,89,-99.99,,,-99.99,,2013-05-17 15:47:00,
2013-05-17 10:56:00,67.0,63.0,29.90,SSW,200,0.0,-999.0,88,-99.99,,,-99.99,,2013-05-17 15:56:00,
2013-05-17 11:07:00,67.0,63.0,29.90,SSW,200,0.0,-999.0,87,-99.99,,,-99.99,,2013-05-17 16:07:00,
2013-05-17 11:13:00,67.0,63.0,29.90,SSW,200,0.0,-999.0,87,-99.99,,,-99.99,,2013-05-17 16:13:00,
2013-05-17 11:26:00,68.0,64.0,29.89,SSW,200,0.0,-999.0,86,-99.99,,,-99.99,,2013-05-17 16:26:00,
2013-05-17 11:37:00,69.0,65.0,29.89,South,186,1.0,-999.0,86,-99.99,,,-99.99,,2013-05-17 16:37:00,
2013-05-17 11:49:00,69.0,65.0,29.89,South,186,1.0,-999.0,86,-99.99,,,-99.99,,2013-05-17 16:49:00,
2013-05-17 11:56:00,69.0,64.0,29.90,South,180,0.0,-999.0,83,-99.99,,,-99.99,,2013-05-17 16:56:00,
2013-05-17 12:08:00,69.0,63.0,29.90,SE,142,0.0,-999.0,81,-99.99,,,-99.99,,2013-05-17 17:08:00,
2013-05-17 12:19:00,69.0,63.0,29.90,SE,142,0.0,-999.0,81,-99.99,,,-99.99,,2013-05-17 17:19:00,
2013-05-17 12:30:00,70.0,64.0,29.89,SSE,155,3.0,-999.0,81,-99.99,,,-99.99,,2013-05-17 17:30:00,
2013-05-17 12:40:00,72.0,-99.9,29.89,SSE,157,2.0,-999.0,77,-99.99,,,-99.99,,2013-05-17 17:40:00,
2013-05-17 12:49:00,72.0,64.0,29.89,SSE,157,2.0,-999.0,77,-99.99,,,-99.99,,2013-05-17 17:49:00,
2013-05-17 13:00:00,73.0,64.0,29.88,SSE,161,4.0,-999.0,74,-99.99,,,-99.99,,2013-05-17 18:00:00,
2013-05-17 13:09:00,73.0,64.0,29.88,SSE,163,3.0,-999.0,74,-99.99,,,-99.99,,2013-05-17 18:09:00,
2013-05-17 13:20:00,73.0,64.0,29.88,SSE,163,3.0,-999.0,74,-99.99,,,-99.99,,2013-05-17 18:20:00,
2013-05-17 13:30:00,73.0,63.0,29.88,SSE,165,1.0,-999.0,72,-99.99,,,-99.99,,2013-05-17 18:30:00,
2013-05-17 13:40:00,73.0,-99.9,29.88,SSE,165,0.0,-999.0,69,-99.99,,,-99.99,,2013-05-17 18:40:00,
2013-05-17 13:50:00,-999.0,-99.9,29.88,SSE,165,0.0,-999.0,69,-99.99,,,-99.99,,2013-05-17 18:50:00,
2013-05-17 14:00:00,74.0,64.0,29.88,SSE,165,0.0,-999.0,70,-99.99,,,-99.99,,2013-05-17 19:00:00,
2013-05-17 14:10:00,76.0,64.0,29.87,SSE,161,2.0,-999.0,67,-99.99,,,-99.99,,2013-05-17 19:10:00,
2013-05-17 14:20:00,76.0,64.0,29.87,SSE,161,2.0,-999.0,67,-99.99,,,-99.99,,2013-05-17 19:20:00,
2013-05-17 14:30:00,75.0,63.0,29.87,SSE,163,0.0,-999.0,66,-99.99,,,-99.99,,2013-05-17 19:30:00,
2013-05-17 14:40:00,76.0,62.0,29.87,SSE,163,0.0,-999.0,62,-99.99,,,-99.99,,2013-05-17 19:40:00,
2013-05-17 14:50:00,76.0,62.0,29.87,SSE,163,0.0,-999.0,62,-99.99,,,-99.99,,2013-05-17 19:50:00,
2013-05-17 15:00:00,76.0,-99.9,29.86,SSE,167,1.0,-999.0,64,-99.99,,,-99.99,,2013-05-17 20:00:00,
2013-05-17 15:09:00,76.0,63.0,29.86,SSE,167,0.0,-999.0,64,-99.99,,,-99.99,,2013-05-17 20:09:00,
2013-05-17 15:20:00,76.0,63.0,29.86,SSE,167,0.0,-999.0,64,-99.99,,,-99.99,,2013-05-17 20:20:00,
2013-05-17 15:30:00,77.0,63.0,29.86,SE,143,0.0,-999.0,62,-99.99,,,-99.99,,2013-05-17 20:30:00,
2013-05-17 15:40:00,77.0,62.0,29.85,SE,143,0.0,-999.0,60,-99.99,,,-99.99,,2013-05-17 20:40:00,
2013-05-17 15:50:00,77.0,62.0,29.85,SE,143,0.0,-999.0,60,-99.99,,,-99.99,,2013-05-17 20:50:00,
2013-05-17 15:58:00,78.0,62.0,29.84,SSE,165,2.0,-999.0,59,-99.99,,,-99.99,,2013-05-17 20:58:00,
2013-05-17 16:07:00,78.0,64.0,29.84,SSE,164,2.0,-999.0,63,-99.99,,,-99.99,,2013-05-17 21:07:00,
2013-05-17 16:17:00,78.0,64.0,29.84,SSE,164,2.0,-999.0,63,-99.99,,,-99.99,,2013-05-17 21:17:00,
2013-05-17 16:26:00,79.0,65.0,29.84,South,170,1.0,-999.0,62,-99.99,,,-99.99,,2013-05-17 21:26:00,
2013-05-17 16:39:00,79.0,64.0,29.84,SSE,159,2.0,-999.0,61,-99.99,,,-99.99,,2013-05-17 21:39:00,
2013-05-17 16:49:00,79.0,64.0,29.84,SSE,159,2.0,-999.0,61,-99.99,,,-99.99,,2013-05-17 21:49:00,
2013-05-17 16:57:00,78.0,66.0,29.84,SSE,165,0.0,-999.0,66,-99.99,,,-99.99,,2013-05-17 21:57:00,
2013-05-17 17:07:00,78.0,62.0,29.83,South,173,3.0,-999.0,57,-99.99,,,-99.99,,2013-05-17 22:07:00,
2013-05-17 17:17:00,78.0,62.0,29.83,South,173,3.0,-999.0,57,-99.99,,,-99.99,,2013-05-17 22:17:00,
2013-05-17 17:28:00,79.0,63.0,29.83,SSE,165,2.0,-999.0,58,-99.99,,,-99.99,,2013-05-17 22:28:00,
2013-05-17 17:38:00,80.0,65.0,29.83,SW,228,3.0,-999.0,60,-99.99,,,-99.99,,2013-05-17 22:38:00,
2013-05-17 17:47:00,80.0,65.0,29.83,SW,228,3.0,-999.0,60,-99.99,,,-99.99,,2013-05-17 22:47:00,
2013-05-17 17:54:00,80.0,64.0,29.83,South,178,4.0,-999.0,58,-99.99,,,-99.99,,2013-05-17 22:54:00,
2013-05-17 18:04:00,79.0,62.0,29.83,South,173,3.0,-999.0,56,-99.99,,,-99.99,,2013-05-17 23:04:00,
2013-05-17 18:13:00,79.0,62.0,29.83,South,173,3.0,-999.0,56,-99.99,,,-99.99,,2013-05-17 23:13:00,
2013-05-17 18:23:00,79.0,63.0,29.83,South,174,3.0,-999.0,59,-99.99,,,-99.99,,2013-05-17 23:23:00,
2013-05-17 18:37:00,79.0,63.0,29.83,South,171,4.0,-999.0,59,-99.99,,,-99.99,,2013-05-17 23:37:00,
2013-05-17 18:47:00,79.0,63.0,29.83,South,171,4.0,-999.0,59,-99.99,,,-99.99,,2013-05-17 23:47:00,
2013-05-17 18:54:00,78.0,64.0,29.83,SSE,165,5.0,-999.0,62,-99.99,,,-99.99,,2013-05-17 23:54:00,
2013-05-17 19:02:00,77.0,63.0,29.83,South,171,5.0,-999.0,61,-99.99,,,-99.99,,2013-05-18 00:02:00,
2013-05-17 19:14:00,77.0,63.0,29.83,South,171,5.0,-999.0,61,-99.99,,,-99.99,,2013-05-18 00:14:00,
2013-05-17 19:22:00,77.0,62.0,29.83,SSE,161,5.0,-999.0,59,-99.99,,,-99.99,,2013-05-18 00:22:00,
2013-05-17 19:33:00,77.0,63.0,29.83,South,169,3.0,-999.0,61,-99.99,,,-99.99,,2013-05-18 00:33:00,
2013-05-17 19:44:00,77.0,63.0,29.83,South,169,3.0,-999.0,61,-99.99,,,-99.99,,2013-05-18 00:44:00,
2013-05-17 19:54:00,76.0,62.0,29.83,SSE,156,4.0,-999.0,63,-99.99,,,-99.99,,2013-05-18 00:54:00,
2013-05-17 20:03:00,75.0,62.0,29.83,SSE,149,2.0,-999.0,65,-99.99,,,-99.99,,2013-05-18 01:03:00,
2013-05-17 20:13:00,75.0,62.0,29.83,SSE,149,2.0,-999.0,65,-99.99,,,-99.99,,2013-05-18 01:13:00,
2013-05-17 20:24:00,74.0,62.0,29.83,SSE,154,3.0,-999.0,66,-99.99,,,-99.99,,2013-05-18 01:24:00,
2013-05-17 20:32:00,73.0,61.0,29.83,SSE,159,1.0,-999.0,67,-99.99,,,-99.99,,2013-05-18 01:32:00,
2013-05-17 20:43:00,73.0,61.0,29.83,SSE,159,1.0,-999.0,67,-99.99,,,-99.99,,2013-05-18 01:43:00,
2013-05-17 20:52:00,72.0,61.0,29.84,SSE,161,0.0,-999.0,69,-99.99,,,-99.99,,2013-05-18 01:52:00,
2013-05-17 21:02:00,70.0,61.0,29.84,SSE,161,0.0,-999.0,72,-99.99,,,-99.99,,2013-05-18 02:02:00,
2013-05-17 21:12:00,70.0,61.0,29.84,SSE,161,0.0,-999.0,72,-99.99,,,-99.99,,2013-05-18 02:12:00,
2013-05-17 21:22:00,69.0,60.0,29.84,SSE,161,0.0,-999.0,73,-99.99,,,-99.99,,2013-05-18 02:22:00,
2013-05-17 21:31:00,69.0,60.0,29.85,SSE,162,0.0,-999.0,74,-99.99,,,-99.99,,2013-05-18 02:31:00,
2013-05-17 21:42:00,69.0,60.0,29.85,SSE,162,0.0,-999.0,74,-99.99,,,-99.99,,2013-05-18 02:42:00,
2013-05-17 21:53:00,68.0,60.0,29.85,SSE,162,0.0,-999.0,75,-99.99,,,-99.99,,2013-05-18 02:53:00,
2013-05-17 22:02:00,68.0,60.0,29.85,SSE,162,0.0,-999.0,76,-99.99,,,-99.99,,2013-05-18 03:02:00,
2013-05-17 22:12:00,68.0,60.0,29.85,SSE,162,0.0,-999.0,76,-99.99,,,-99.99,,2013-05-18 03:12:00,
2013-05-17 22:22:00,68.0,61.0,29.86,SSE,162,0.0,-999.0,77,-99.99,,,-99.99,,2013-05-18 03:22:00,
2013-05-17 22:33:00,67.0,60.0,29.87,SSE,162,0.0,-999.0,78,-99.99,,,-99.99,,2013-05-18 03:33:00,
2013-05-17 22:43:00,67.0,60.0,29.87,SSE,162,0.0,-999.0,78,-99.99,,,-99.99,,2013-05-18 03:43:00,
2013-05-17 22:53:00,66.0,59.0,29.88,SSE,162,0.0,-999.0,79,-99.99,,,-99.99,,2013-05-18 03:53:00,
2013-05-17 23:02:00,65.0,59.0,29.88,SSE,162,0.0,-999.0,81,-99.99,,,-99.99,,2013-05-18 04:02:00,
2013-05-17 23:12:00,65.0,59.0,29.88,SSE,162,0.0,-999.0,81,-99.99,,,-99.99,,2013-05-18 04:12:00,
2013-05-17 23:23:00,65.0,59.0,29.88,SSE,162,0.0,-999.0,82,-99.99,,,-99.99,,2013-05-18 04:23:00,
2013-05-17 23:33:00,64.0,58.0,29.88,SSE,162,0.0,-999.0,82,-99.99,,,-99.99,,2013-05-18 04:33:00,
2013-05-17 23:42:00,64.0,58.0,29.88,SSE,162,0.0,-999.0,82,-99.99,,,-99.99,,2013-05-18 04:42:00,
2013-05-17 23:52:00,63.0,58.0,29.88,SSE,162,0.0,-999.0,83,-99.99,,,-99.99,,2013-05-18 04:52:00,